map of DVO home
Great Circle Mapper logo
DVO - Airport
Location
City:  Davao City, Philippines
Name:Francisco Bangoy International Airport
ICAO / IATA:RPMD / DVO

Details
Type:Airport (Aerodrome, Airfield)
Use:Public/Civil, International (customs port of entry)
Latitude:707'32"N (7.125522)
Longitude:12538'45"E (125.645778)
Datum:WGS 1984
Elevation:96 ft (29 m)
Variation:0.48W (WMM2015 magnetic declination)
-0.11 annual change
Runways:1
Longest:9842 × 148 ft (3000 × 45 m), paved

Time
Time Zone:UTC+8
Local Time:

Weather
METAR:RPMD 261100Z 23006KT 9999 FEW015CB SCT090 29/24 Q1011 A2985 CB NW QD W/ LTNG
TAF:RPMD 260500Z 2606/2706 02006KT 9999 SCT016 SCT090
TEMPO 2606/2612 04012KT 9000 TS-SHRA FEW015CB SCT090 BKN290

Related Locations
Nearby:
Farthest:NPR: 12379 mi / 19921 km
Novo Progresso [Aeropuerto Novo Progresso], PA, BR

Find:

   beyond  
but within

Other Information
Maps:
NOTAMs:
Links:
Sources:

  
flag of Philippines   

Sectional Chart

Flight Planning
at skyvector.com

Satellite Image

Google Maps Satellite View

 

Copyright © 2004-2015 Karl L. Swartz. All rights reserved.
The Great Circle Mapper name and logo are trademarks of the Great Circle Mapper.
All other trademarks mentioned herein belong to their respective owners.
Please see credits for attibutions and further copyright information.

  Follow gcmap on Facebook Follow gcmap on Twitter Follow gcmap on Google+

hCard Microformat

Geo Microformat